Regional Weather Roundup
Issued by NWS

Home | Current Version | Previous Version | Graphics & Text | Print | Product List | Glossary Off
Versions: 1 2 3 4 5 6 7 8 9 10 11 12 13 14 15 16 17 18 19 20 21 22 23 24 25 26 27 28 29 30 31 32 33 34 35 36 37 38 39 40 41 42 43 44 45 46 47 48 49 50

000
ASUS43 KMKX 240700
RWRWI

WISCONSIN REGIONAL WEATHER ROUNDUP
NATIONAL WEATHER SERVICE MILWAUKEE/SULLIVAN WI
200 AM CDT TUE MAY 24 2016

NOTE: "FAIR" INDICATES FEW OR NO CLOUDS BELOW 12,000 FEET WITH NO
SIGNIFICANT WEATHER AND/OR OBSTRUCTIONS TO VISIBILITY.

WIZ001-002-006>008-014>016-023>028-240800-
NORTHWEST WISCONSIN

CITY           SKY/WX    TMP DP  RH WIND       PRES   REMARKS
SUPERIOR ARPT  CLOUDY    59  59  99 CALM      29.79R
ASHLAND        CLOUDY    60  59  96 S7        29.81F
HAYWARD        CLOUDY    62  59  90 CALM      29.84S
SIREN          CLOUDY    61  59  95 CALM      29.81S
CUMBERLAND     PTCLDY    61  55  82 S7        29.82F
RICE LAKE      PTCLDY    65  57  77 CALM      29.84F
CHETEK         CLOUDY    62  62  98 CALM      29.84F
LADYSMITH      CLOUDY    65  61  87 CALM      29.87F
EAU CLAIRE     CLOUDY    65  62  90 SE5       29.83F
MENOMONIE      CLOUDY    64  63  94 SE5       29.83F
NEW RICHMOND   MOCLDY    63  59  88 SE5       29.82S
OSCEOLA        CLOUDY    64  64 100 SE6       29.84R
$$

WIZ003>005-009-010-017-018-240800-
NORTH CENTRAL WISCONSIN

CITY           SKY/WX    TMP DP  RH WIND       PRES   REMARKS
MANITOWISH WTR MOCLDY    60  60 100 CALM      29.87R FOG
ARBOR VITAE    CLOUDY    63  59  88 CALM      29.87R
WOODRUFF       CLOUDY    63  59  88 CALM      29.87R
RHINELANDER    MOCLDY    64  49  57 SW6       29.88S
EAGLE RIVER      N/A     65  45  48 CALM      29.86S
LAND O LAKES   CLOUDY    60  55  85 CALM      29.86F
PHILLIPS       LGT RAIN  65  59  80 SW6       29.86S
TOMAHAWK       MOCLDY    61  49  65 CALM      29.89R
MEDFORD        LGT RAIN  62  60  93 W3        29.88S
MERRILL        CLOUDY    61  51  68 CALM      29.88S
$$

WIZ029-030-035-036-043>047-240800-
CENTRAL WISCONSIN

CITY           SKY/WX    TMP DP  RH WIND       PRES   REMARKS
WAUSAU         MOCLDY    63  52  67 SE3       29.86F
MOSINEE        MOCLDY    59  50  72 SE3       29.89S
MARSHFIELD     MOCLDY    63  53  70 CALM      29.86F
STEVENS POINT  MOCLDY    55  46  72 CALM      29.89S
WAUPACA        CLEAR     58  49  73 CALM      29.88S
WAUTOMA        MOCLDY    53  49  86 CALM      29.89S
WISC RAPIDS    CLOUDY    58  48  69 CALM      29.88F
CAMP DOUGLAS   CLOUDY    58  57  96 SE3       29.87R
$$

WIZ011>013-019>022-031-037>040-048>050-240800-
NORTHEAST WISCONSIN

CITY           SKY/WX    TMP DP  RH WIND       PRES   REMARKS
ANTIGO         CLOUDY    58  47  66 CALM      29.89F
SHAWANO        PTCLDY    64  48  57 CALM      29.88S
OCONTO         CLEAR     54  49  85 CALM      29.87S
STURGEON BAY   NOT AVBL
GREEN BAY      CLEAR     63  42  46 S8        29.88S
MANITOWOC      NOT AVBL
APPLETON       CLEAR     61  45  55 S7        29.87F
CLINTONVILLE   PTCLDY    61  46  59 CALM      29.88R
OSHKOSH        CLEAR     58  45  62 S8        29.89S
$$

WIZ032>034-041-042-053>061-240800-
SOUTHWEST WISCONSIN

CITY           SKY/WX    TMP DP  RH WIND       PRES   REMARKS
LA CROSSE      CLOUDY    67  60  78 E6        29.84F
SPARTA         CLOUDY    64  56  78 CALM      29.87S
VIROQUA        CLOUDY    67  49  52 S9        29.89S
BOSCOBEL       CLOUDY    58  52  80 CALM      29.88
PRAIRIE DU CHI CLOUDY    65  51  59 CALM      29.88R
PLATTEVILLE    MOCLDY    64  49  58 S9        29.90S
$$

WIZ056-057-062-063-064-067-068-240800-
SOUTH CENTRAL WISCONSIN

CITY           SKY/WX    TMP DP  RH WIND       PRES   REMARKS
REEDSBURG      CLOUDY    64  48  54 CALM      29.89R
BARABOO/DELLS  CLOUDY    62  46  55 CALM      29.89S
LONE ROCK      NOT AVBL
MINERAL POINT  PTCLDY    64  45  48 S5        29.91R
MADISON        PTCLDY    61  49  64 SW3       29.90S
MIDDLETON      PTCLDY    60  48  65 CALM      29.90S
WATERTOWN      CLEAR     58  45  62 CALM      29.90F
MONROE         PTCLDY    64  45  48 SW10      29.91S
JANESVILLE     CLOUDY    63  46  55 CALM      29.91S
$$

WIZ051-052-058>065-066-070>072-240800-
SOUTHEAST WISCONSIN

CITY           SKY/WX    TMP DP  RH WIND       PRES   REMARKS
MILWAUKEE      PTCLDY    61  40  45 SW5       29.92S
WAUKESHA       CLEAR     59  36  41 S3        29.93F
MILWAUKEE/TIMM CLEAR     61  34  36 S5        29.92S
RACINE         CLEAR     58  44  60 CALM      29.94S
BURLINGTON     PTCLDY    51  45  80 CALM      29.92F
KENOSHA        CLEAR     60  42  51 S7        29.93S
FOND DU LAC    CLEAR     55  44  66 S6        29.90S
SHEBOYGAN      CLEAR     53  38  56 CALM      29.91F
WEST BEND      CLEAR     59  36  41 CALM      29.91F
JUNEAU         CLEAR     58  44  59 CALM      29.92S
$$

LSZ147-162-240800-
LAKE SUPERIOR

STATION/POSITION TIME  TEMP    WIND        PRES    WAVE
                       AIR SEA DIR/SP/G            HT/PER
                 (UTC) (F)     (DEG/KT/KT) (MB)    (FT/S)
W MID LAKE BUOY  0550   52 38  250/ 12/ 16 1009.1R   1
DEVILS ISLAND    0600   62     200/  7/  9 1009.0F
PORT WING        0520          140/  3/  9 1008.8F
SAXON HARBOR     0600   62     160/  5/ 15 1010.2F
$$

LMZ867-665-643>646-240800-
LAKE MICHIGAN

STATION/POSITION TIME  TEMP    WIND        PRES    WAVE
                       AIR SEA DIR/SP/G            HT/PER
                 (UTC) (F)     (DEG/KT/KT) (MB)    (FT/S)
CHAMBERS ISLAND  0640   65     170/  6/ 12 1011.9S
N MID LAKE BUOY  0550   50 44  190/ 12/ 12 1012.0S   2/ 5
NORTHPORT PIER   0600   58     160/  8/ 12 1011.9S
SISTER BAY       0619   63     180/ 14/ 17   N/A
ALGOMA LAKESHORE 0602          210/ 12/ 14   N/A
KEWAUNEE LAKESHO 0600   53     180/  9/ 10 1011.9F
SHEBOYGAN LAKESH 0600   61     180/ 16/ 17 1013.4R
PORT WASHINGTON  0640   57     240/  1/  4 1013.5F
S MID LAKE BUOY  0550   56 49  150/ 12/ 12 1013.6S   1
KENOSHA   LAKESH 0600   58     180/ 11/ 12 1013.2S
$$

TC  - TEMPERATURE IN CELSIUS
VSB - VISIBILITY IN STATUTE MILES
WCI - WIND CHILL INDEX
HX  - HEAT INDEX




USA.gov is the U.S. government's official web portal to all federal, state and local government web resources and services.